Location: Владивосток
(43.1151°N, 131.8856°E)
Time: 21:53:31
(UTC+10:00)

DX 1 - Pass Details

Date: 02 July 2022
Orbit: 617 x 629 km, 98.4° (Epoch: 10 August)

Event Time Altitude Azimuth Distance (km) Brightness Sun altitude
Rises 23:12:14 0° 3° (N) 2,929 ? -18.0°
Reaches altitude 10° 23:14:38 10° 353° (N) 2,015 ? -18.2°
Maximum altitude 23:18:28 31° 292° (WNW) 1,112 ? -18.5°
Drops below altitude 10° 23:22:17 10° 231° (SW) 1,997 ? -18.8°
Enters shadow 23:23:36 - 224° (SW) 2,491 ? -18.9°
